Humboldt, Iowa, United States (50548)
Lat: 42.72N, Lon: 94.22W
Wx Zone: IAZ024
Local Info
Past Weather Observations for Thursday, February 4, 2016

NOTE: This archive is for the closest National Weather Service station to Humboldt. Information may differ from the station used for current weather conditions.

Click here for Long-term Archive

Time Weather Temperature Dewpoint Humidity Pressure Winds Precip Visibility
23:55
Clear
9°F / -13°C 3°F / -16°C 78% 30.33 in
(1027 mb)
Calm - 10SM
23:35
Clear
7°F / -14°C 1°F / -17°C 78% 30.33 in
(1027 mb)
Calm - 10SM
23:15
Clear
9°F / -13°C °F / -18°C 66% 30.33 in
(1027 mb)
Calm - 10SM
22:55
Clear
9°F / -13°C 3°F / -16°C 78% 30.33 in
(1027 mb)
Calm - 10SM
22:35
Clear
12°F / -11°C 7°F / -14°C 79% 30.3 in
(1026 mb)
Calm - 10SM
22:15
Clear
14°F / -10°C 9°F / -13°C 79% 30.3 in
(1026 mb)
NW 4.6 mph
(NW 7 kph)
- 10SM
21:55
Clear
12°F / -11°C 7°F / -14°C 79% 30.3 in
(1026 mb)
Calm - 10SM
21:35
Clear
16°F / -9°C 9°F / -13°C 73% 30.3 in
(1026 mb)
NW 4.6 mph
(NW 7 kph)
- 10SM
21:15
Clear
12°F / -11°C 7°F / -14°C 79% 30.3 in
(1026 mb)
Calm - 10SM
20:55
Clear
14°F / -10°C 7°F / -14°C 73% 30.3 in
(1026 mb)
Calm - 10SM
20:35
Clear
14°F / -10°C 9°F / -13°C 79% 30.27 in
(1025 mb)
Calm - 10SM
20:15
Clear
12°F / -11°C 7°F / -14°C 79% 30.27 in
(1025 mb)
SSW 3.5 mph
(SSW 6 kph)
- 10SM
19:55
Clear
16°F / -9°C 9°F / -13°C 73% 30.27 in
(1025 mb)
Calm - 10SM
19:35
Clear
16°F / -9°C 9°F / -13°C 73% 30.27 in
(1025 mb)
NW 3.5 mph
(NW 6 kph)
- 10SM
19:15
Clear
18°F / -8°C 10°F / -12°C 73% 30.27 in
(1025 mb)
NW 3.5 mph
(NW 6 kph)
- 10SM
18:55
Clear
18°F / -8°C 10°F / -12°C 73% 30.27 in
(1025 mb)
NW 3.5 mph
(NW 6 kph)
- 10SM
18:35
Clear
19°F / -7°C 10°F / -12°C 68% 30.27 in
(1025 mb)
NW 3.5 mph
(NW 6 kph)
- 10SM
18:15
Clear
19°F / -7°C 12°F / -11°C 73% 30.24 in
(1024 mb)
NW 3.5 mph
(NW 6 kph)
- 10SM
17:55
Clear
21°F / -6°C 12°F / -11°C 68% 30.24 in
(1024 mb)
NW 5.8 mph
(NW 9 kph)
- 10SM
17:35
Clear
21°F / -6°C 14°F / -10°C 74% 30.24 in
(1024 mb)
NW 6.9 mph
(NW 11 kph)
- 10SM
17:15
Partly Cloudy
25°F / -4°C 16°F / -9°C 69% 30.21 in
(1023 mb)
NW 5.8 mph
(NW 9 kph)
- 10SM
16:55
Overcast
27°F / -3°C 19°F / -7°C 74% 30.21 in
(1023 mb)
NW 10.4 mph
(NW 17 kph)
- 10SM
16:35
Overcast
27°F / -3°C 19°F / -7°C 74% 30.21 in
(1023 mb)
NW 8.1 mph
(NW 13 kph)
- 10SM
16:15
Overcast
27°F / -3°C 19°F / -7°C 74% 30.18 in
(1022 mb)
NW 9.2 mph
(NW 15 kph)
- 10SM
15:55
Overcast
27°F / -3°C 21°F / -6°C 80% 30.18 in
(1022 mb)
NW 8.1 mph
(NW 13 kph)
- 10SM
15:35
Overcast
27°F / -3°C 19°F / -7°C 74% 30.18 in
(1022 mb)
NW 10.4 mph
(NW 17 kph)
- 10SM
15:15
Overcast
27°F / -3°C 19°F / -7°C 74% 30.15 in
(1021 mb)
NW 10.4 mph
(NW 17 kph)
- 10SM
14:55
Overcast
27°F / -3°C 19°F / -7°C 74% 30.15 in
(1021 mb)
W 8.1 mph
(W 13 kph)
- 10SM
14:35
Overcast
27°F / -3°C 18°F / -8°C 69% 30.15 in
(1021 mb)
W 8.1 mph
(W 13 kph)
- 10SM
14:15
Overcast
25°F / -4°C 18°F / -8°C 74% 30.15 in
(1021 mb)
SSW 9.2 mph
(SSW 15 kph)
- 10SM
13:55
Overcast
25°F / -4°C 18°F / -8°C 74% 30.15 in
(1021 mb)
SSW 10.4 mph
(SSW 17 kph)
- 3SM
13:35
Mostly Cloudy
27°F / -3°C 18°F / -8°C 69% 30.15 in
(1021 mb)
SSW 10.4 mph
(SSW 17 kph)
- 10SM
13:15
Partly Cloudy
25°F / -4°C 18°F / -8°C 74% 30.12 in
(1020 mb)
SSW 9.2 mph
(SSW 15 kph)
- 10SM
12:55
Partly Cloudy
25°F / -4°C 18°F / -8°C 74% 30.15 in
(1021 mb)
SW 10.4 mph
(SW 17 kph)
- 10SM
12:35
Overcast
25°F / -4°C 16°F / -9°C 69% 30.15 in
(1021 mb)
SW 6.9 mph
(SW 11 kph)
- 10SM
12:15
Mostly Cloudy
25°F / -4°C 16°F / -9°C 69% 30.15 in
(1021 mb)
SW 9.2 mph
(SW 15 kph)
- 10SM
11:55
Partly Cloudy
25°F / -4°C 16°F / -9°C 69% 30.15 in
(1021 mb)
SW 8.1 mph
(SW 13 kph)
- 10SM
11:35
Overcast
21°F / -6°C 14°F / -10°C 74% 30.15 in
(1021 mb)
SW 8.1 mph
(SW 13 kph)
- 3SM
11:15
Overcast
21°F / -6°C 14°F / -10°C 74% 30.15 in
(1021 mb)
SW 6.9 mph
(SW 11 kph)
- 10SM
10:55
Overcast
21°F / -6°C 12°F / -11°C 68% 30.15 in
(1021 mb)
SW 8.1 mph
(SW 13 kph)
- 10SM
10:35
Partly Cloudy
21°F / -6°C 14°F / -10°C 74% 30.15 in
(1021 mb)
SW 9.2 mph
(SW 15 kph)
- 10SM
10:15
Mostly Cloudy
21°F / -6°C 12°F / -11°C 68% 30.15 in
(1021 mb)
SW 9.2 mph
(SW 15 kph)
- 10SM
09:55
Partly Cloudy
21°F / -6°C 12°F / -11°C 68% 30.15 in
(1021 mb)
SSE 5.8 mph
(SSE 9 kph)
- 10SM
09:35
Clear
19°F / -7°C 10°F / -12°C 68% 30.15 in
(1021 mb)
SSE 8.1 mph
(SSE 13 kph)
- 10SM
09:15
Clear
19°F / -7°C 10°F / -12°C 68% 30.15 in
(1021 mb)
SW 8.1 mph
(SW 13 kph)
- 10SM
08:55
Clear
19°F / -7°C 10°F / -12°C 68% 30.15 in
(1021 mb)
S 5.8 mph
(S 9 kph)
- 10SM
08:35
Clear
18°F / -8°C 10°F / -12°C 73% 30.12 in
(1020 mb)
SSE 8.1 mph
(SSE 13 kph)
- 10SM
08:15
Partly Cloudy
18°F / -8°C 10°F / -12°C 73% 30.12 in
(1020 mb)
SSE 6.9 mph
(SSE 11 kph)
- 10SM
07:55
Mostly Cloudy
18°F / -8°C 10°F / -12°C 73% 30.12 in
(1020 mb)
S 8.1 mph
(S 13 kph)
- 10SM
07:35
Overcast
18°F / -8°C 10°F / -12°C 73% 30.12 in
(1020 mb)
S 6.9 mph
(S 11 kph)
- 10SM
07:15
Overcast
18°F / -8°C 9°F / -13°C 68% 30.12 in
(1020 mb)
S 8.1 mph
(S 13 kph)
- 10SM
06:55
Overcast
18°F / -8°C 10°F / -12°C 73% 30.12 in
(1020 mb)
SSE 6.9 mph
(SSE 11 kph)
- 10SM
06:35
Overcast
18°F / -8°C 9°F / -13°C 68% 30.12 in
(1020 mb)
SSE 6.9 mph
(SSE 11 kph)
- 10SM
06:15
Overcast
18°F / -8°C 9°F / -13°C 68% 30.12 in
(1020 mb)
S 6.9 mph
(S 11 kph)
- 10SM
05:55
Overcast
18°F / -8°C 9°F / -13°C 68% 30.12 in
(1020 mb)
SSE 6.9 mph
(SSE 11 kph)
- 3SM
05:35
Overcast
18°F / -8°C 10°F / -12°C 73% 30.12 in
(1020 mb)
SSW 5.8 mph
(SSW 9 kph)
- 10SM
05:15
Overcast
18°F / -8°C 9°F / -13°C 68% 30.12 in
(1020 mb)
SSE 4.6 mph
(SSE 7 kph)
- 10SM
04:55
Overcast
16°F / -9°C 9°F / -13°C 73% 30.12 in
(1020 mb)
S 4.6 mph
(S 7 kph)
- 10SM
04:35
Overcast
16°F / -9°C 9°F / -13°C 73% 30.12 in
(1020 mb)
SW 5.8 mph
(SW 9 kph)
- 10SM
04:15
Overcast
16°F / -9°C 9°F / -13°C 73% 30.12 in
(1020 mb)
S 4.6 mph
(S 7 kph)
- 10SM
03:55
Overcast
16°F / -9°C 9°F / -13°C 73% 30.12 in
(1020 mb)
S 4.6 mph
(S 7 kph)
- 10SM
03:35
Overcast
16°F / -9°C 9°F / -13°C 73% 30.12 in
(1020 mb)
S 4.6 mph
(S 7 kph)
- 10SM
03:15
Overcast
14°F / -10°C 9°F / -13°C 79% 30.15 in
(1021 mb)
SSE 5.8 mph
(SSE 9 kph)
- 10SM
02:55
Overcast
12°F / -11°C 7°F / -14°C 79% 30.15 in
(1021 mb)
SSE 6.9 mph
(SSE 11 kph)
- 10SM
02:35
Overcast
12°F / -11°C 7°F / -14°C 79% 30.15 in
(1021 mb)
SW 6.9 mph
(SW 11 kph)
- 10SM
02:15
Overcast
12°F / -11°C 7°F / -14°C 79% 30.15 in
(1021 mb)
SW 6.9 mph
(SW 11 kph)
- 10SM
01:55
Overcast
12°F / -11°C 7°F / -14°C 79% 30.15 in
(1021 mb)
S 3.5 mph
(S 6 kph)
- 10SM
01:35
Overcast
12°F / -11°C 5°F / -15°C 73% 30.15 in
(1021 mb)
S 4.6 mph
(S 7 kph)
- 10SM
01:15
Mostly Cloudy
12°F / -11°C 7°F / -14°C 79% 30.15 in
(1021 mb)
SSW 6.9 mph
(SSW 11 kph)
- 10SM
00:55
Clear
12°F / -11°C 7°F / -14°C 79% 30.15 in
(1021 mb)
SSW 8.1 mph
(SSW 13 kph)
- 10SM
00:35
Clear
10°F / -12°C 3°F / -16°C 72% 30.15 in
(1021 mb)
SSW 5.8 mph
(SSW 9 kph)
- 10SM
00:15
Clear
10°F / -12°C 5°F / -15°C 79% 30.15 in
(1021 mb)
SSW 5.8 mph
(SSW 9 kph)
- 10SM
Time Weather Temperature Dewpoint Humidity Pressure Winds Precip Visibility


Weather for websites

WeatherForYou.com, LLC is not responsible for any damages or problems caused by this service. Current weather conditions are obtained from the closest station including government and personal stations which may have varying degrees of accuracy. Weather forecasts are derived from the NOAA NDFD. Like all things, this site belongs to Jesus Christ... He just trusts us to maintain it. If you have any questions or comments email webmaster@weatherforyou.com

Copyright © 2016, WeatherForYou.com LLC. All rights reserved.